Location: Diebersbach
(48.5163°N, 8.0558°E)
Time: 09:45:20
(UTC+00:00)

USA 290 - Pass Details

Date: 20 June 2021
Orbit: 401 x 412 km, 73.6° (Epoch: 01 August)

Event Time Altitude Azimuth Distance (km) Brightness Sun altitude
Exits shadow 01:11:40 26° 168° (SSE) 841 3.3 -14.5°
Maximum altitude 01:13:06 46° 109° (ESE) 555 2.8 -14.4°
Drops below altitude 10° 01:16:13 10° 35° (NE) 1,471 6.4 -14.2°
Sets 01:18:18 0° 29° (NNE) 2,335 8.0 -14.0°
